NINGXIA-1 4 (44782 NORAD) Tracking and Keplerian Element Data

This shows tracking and keplerian element data for the satellite.

Feedback or suggestion? Click here.




ElementValue
Catalog44782
NameNINGXIA-1 4
Epoch Orbit311
Epoch Day339.42974413
Epoch Year2019
RAAN36.4516
Inclination45.0124
Eccentricity0.0011709
Argument of Perigee352.2466
Mean Anonmoly7.8176
Mean Motion14.01337229
Decay Rate-1.3E-06
L11 44782U 19076D 19339.42974413 -.00000130 00000-0 00000+0 0 9991
L22 44782 45.0124 36.4516 0011709 352.2466 7.8176 14.01337229 3110

Live tracking and technical data element details for NINGXIA-1 4 (NORAD 44782). NINGXIA-1 4 can be tracked NOW for your location showing map with azimuth and elevation plus other details from your city location.

Track the satellite on the map from your city or location and see movement details for azimuth, elevation, latitude, longitude, range, height, and movement on the map or in text.







IsCatalogInMostPopularTable: catalog: 44782, numindb: 1
Update: records affected: 1



GetName: 44782 NINGXIA-1 4

Hit Count: updated at: Thu, 05 Dec 2019 17:07:40 GMT